Погода в Боголюбове

Россия / Смоленская область     55°30′05″N   32°56′53″E
темп.,
°C
ветер,
м/с
пор.,
м/с
влажн.,
%
обл.,
%
осадки,
мм/ч
давл.,
гПа
погр.,
м
8 марта, пн
пн800:00−6з4129289 0.1 998684
03:00−6з5129394 0.3 999725
06:00−8зсз4129275 0.1 1000553
09:00−9сз499175 0.2 1002495
12:00−6сз468394 0.0 1005756
15:00−5сз468097 0.1 1007980
18:00−7ссз4889100 0.2 1009636
21:00−9ссз399296 0.3 1012447
9 марта, вт
вт900:00−12ссз379693 0.0 1014201
03:00−15ссз249779 0.0 101675
06:00−16ссз239727 0.0 101775
09:00−14ссз369320 0.0 1019252
12:00−10ссз358175 0.0 1019740
15:00−9ссз467688 0.1 10201012
18:00−10ссз2585100 0.1 1021243
21:00−14ссз229297 0.1 102320
10 марта, ср
ср1000:00−16всв129064 0.0 102420
03:00−16в229379 0.0 102554
06:00−16в3593100 0.0 1026218
09:00−18в4690100 0.0 1027259
12:00−15в357624 0.0 1029382
15:00−13в356812 0.0 1030543
18:00−15в23830 0.0 103098
21:00−19в22872 0.0 103222
11 марта, чт
чт1100:00−19юв22873 0.0 103320
03:00−20ююв12852 0.0 103320
06:00−20ююв238842 0.0 103327
09:00−18ю358348 0.0 1033163
12:00−12ю35718 0.0 1032366
15:00−9ю46684 0.0 1030607
18:00−11ююв48800 0.0 1028342
21:00−14ю411800 0.0 1028273
12 марта, пт
пт1200:00−15ю5128367 0.0 1026342
03:00−14ююв5138583 0.0 1024355
06:00−13ююв61590100 0.0 1020434
09:00−10ююв71684100 0.0 1016641
12:00−6ююв91691100 0.7 1013906
15:00−3ю81692100 2.6 10101206
18:00−2ю71395100 1.8 1007963
21:00−1ю51196100 3.1 1006593